Back to catalog

CZ-6A DEB

AlivePO
NORAD 61313·DEBRIS·🇨🇳 China

Launched Aug 6, 2024 from Taiyuan Satellite Launch Center

Loading…

Next Passes (next 24 hours)

TLE

FreshSource: Space-Track

Epoch: Sep 14, 2026, 08:33 UTC

1 61313U 24140UA  26257.35670227  .00012318  00000-0  18933-2 0  9990
2 61313  88.7722 237.4831 0028554 276.6310  83.1660 14.73195598109283

Track CZ-6A DEB in real time with AllMySat

Download on the App Store